1487419200.32,42181,12.13,73232.8,-8.49,-15.25,-14.65,0,*5E
1487419201.58,42182,12.19,73232.5,-8.47,-14.83,-14.23,0,*5C
1487419202.81,42183,12.13,73234.5,-8.47,-14.65,-14.11,0,*54
1487419204.07,42184,12.19,73238.3,-8.47,-14.37,-13.83,0,*58
1487419205.3,42185,12.19,73236.3,-8.47,-14.61,-14.19,0,*5E
1487419206.55,42186,12.19,73232.5,-8.45,-14.89,-14.47,0,*52
1487419207.81,42187,12.13,73228.3,-8.47,-14.79,-14.65,0,*5E
1487419209.09,42188,12.13,73228.8,-8.47,-14.75,-14.79,0,*50
1487419210.36,42189,12.19,73232.8,-8.49,-13.79,-13.97,0,*53
1487419211.59,42190,12.19,73238.8,-8.49,-13.19,-13.37,0,*57
1487419212.83,42191,12.19,73236.5,-8.49,-13.23,-13.37,0,*5F
1487419214.04,42192,12.19,73234.0,-8.49,-13.23,-13.19,0,*50
1487419215.25,42193,12.19,73232.3,-8.49,-13.11,-13.11,0,*58
1487419216.46,42194,12.19,73234.8,-8.49,-12.89,-12.93,0,*54
1487419217.7,42195,12.13,73234.5,-8.47,-12.97,-13.07,0,*58
1487419218.93,42196,12.19,73234.0,-8.47,-12.89,-13.11,0,*53
1487419220.17,42197,12.13,73234.0,-8.49,-12.97,-13.33,0,*53
1487419221.43,42198,12.19,73234.0,-8.47,-12.97,-13.33,0,*52
1487419222.69,42199,12.19,73232.5,-8.49,-13.33,-13.61,0,*55
1487419223.98,42200,12.19,73232.0,-8.47,-13.37,-13.83,0,*50
1487419225.2,42201,12.19,73234.5,-8.49,-13.33,-13.93,0,*5A
1487419226.44,42202,12.19,73236.3,-8.47,-13.51,-14.33,0,*5E
1487419227.68,42203,12.19,73234.3,-8.49,-13.73,-14.75,0,*53
1487419228.92,42204,12.19,73234.8,-8.47,-13.93,-15.25,0,*50
1487419230.22,42205,12.19,73234.3,-8.47,-14.51,-16.09,0,*55
1487419231.47,42206,12.19,73236.5,-8.47,-14.65,-16.51,0,*5C
1487419232.76,42207,12.19,73234.3,-8.47,-15.35,-18.01,0,*52
1487419233.96,42208,12.19,73232.3,-8.49,-15.99,-18.79,0,*5A
1487419235.21,42209,12.19,73238.0,-8.47,-16.51,-18.69,0,*53
1487419236.5,42210,12.13,73238.0,-8.47,-16.69,-18.93,0,*55
1487419237.76,42211,12.19,73238.8,-8.49,-17.59,-20.19,0,*51
1487419238.97,42212,12.19,73236.5,-8.49,-18.17,-20.29,0,*54
1487419240.21,42213,12.19,73238.8,-8.49,-19.57,-22.07,0,*5E
1487419241.44,42214,12.19,73232.5,-8.49,-20.35,-22.87,0,*5F
1487419242.65,42215,12.19,73236.3,-8.49,-21.63,-22.57,0,*51
1487419243.88,42216,12.19,73238.3,-8.55,-20.79,-19.37,0,*5B
1487419245.11,42217,12.19,73238.0,-8.51,-18.21,-16.41,0,*56
1487419246.41,42218,12.19,73238.0,-8.51,-17.07,-16.17,0,*51
1487419247.66,42219,12.13,73232.3,-8.51,-17.03,-16.93,0,*58
1487419248.92,42220,12.19,73236.3,-8.51,-16.79,-17.17,0,*53
1487419250.14,42221,12.19,73234.0,-8.55,-16.37,-16.75,0,*59
1487419251.4,42222,12.13,73228.8,-8.55,-16.09,-16.23,0,*54
1487419252.63,42223,12.13,73228.0,-8.59,-15.71,-15.35,0,*51
1487419253.88,42224,12.19,73232.0,-8.61,-14.97,-14.61,0,*54
1487419255.09,42225,12.13,73234.5,-8.59,-14.19,-14.23,0,*5E
1487419256.31,42226,12.13,73234.5,-8.55,-14.19,-14.69,0,*5F
1487419257.53,42227,12.13,73234.0,-8.59,-14.61,-14.93,0,*58
1487419258.76,42228,12.13,73234.5,-8.59,-14.89,-15.21,0,*59
1487419259.98,42229,12.19,73238.3,-8.59,-14.69,-14.75,0,*56
1487419261.21,42230,12.13,73232.3,-8.59,-14.61,-14.83,0,*5F
1487419262.44,42231,12.19,73236.8,-8.59,-15.29,-15.89,0,*58
1487419263.68,42232,12.19,73236.8,-8.59,-16.03,-17.07,0,*54
1487419264.94,42233,12.19,73238.3,-8.61,-16.13,-16.89,0,*58
1487419266.23,42234,12.13,73236.0,-8.61,-15.81,-16.69,0,*59
1487419267.47,42235,12.13,73232.8,-8.61,-16.37,-17.69,0,*57
1487419268.76,42236,12.13,73232.5,-8.65,-17.17,-17.97,0,*52
1487419270.0,42237,12.13,73232.5,-8.67,-17.21,-18.21,0,*56
1487419271.2,42238,12.19,73232.5,-8.67,-17.31,-18.21,0,*58
1487419272.44,42239,12.13,73232.8,-8.67,-16.69,-17.73,0,*5D
1487419273.7,42240,12.19,73236.8,-8.69,-16.37,-17.25,0,*55
1487419274.96,42241,12.19,73236.3,-8.69,-16.31,-16.75,0,*56
1487419276.23,42242,12.13,73234.3,-8.69,-16.09,-15.95,0,*53
1487419277.52,42243,12.19,73234.0,-8.69,-15.57,-14.83,0,*5C
1487419278.77,42244,12.13,73234.0,-8.69,-15.01,-14.33,0,*53
1487419280.01,42245,12.19,73234.3,-8.71,-14.29,-13.83,0,*5C
1487419281.25,42246,12.19,73234.3,-8.71,-14.29,-13.97,0,*5A
1487419282.52,42247,12.19,73238.3,-8.69,-14.47,-14.19,0,*5B
1487419283.79,42248,12.19,73236.8,-8.69,-14.19,-13.97,0,*5E
1487419285.05,42249,12.13,73232.3,-8.69,-14.01,-13.69,0,*57
1487419286.3,42250,12.13,73234.0,-8.69,-14.15,-13.73,0,*51
1487419287.56,42251,12.19,73234.5,-8.69,-14.29,-13.83,0,*50
1487419288.79,42252,12.19,73238.3,-8.69,-14.61,-14.15,0,*57
1487419290.04,42253,12.19,73232.3,-8.71,-14.01,-13.55,0,*5A
1487419291.28,42254,12.19,73232.8,-8.73,-13.19,-12.93,0,*5A
1487419292.54,42255,12.19,73234.5,-8.75,-12.61,-12.35,0,*5F
1487419293.83,42256,12.19,73234.5,-8.73,-12.61,-12.35,0,*5A
1487419295.06,42257,12.13,73232.5,-8.71,-12.57,-12.43,0,*5D
1487419296.32,42258,12.13,73232.8,-8.71,-12.35,-12.15,0,*55
1487419297.56,42259,12.19,73234.3,-8.71,-12.11,-12.03,0,*55
1487419298.83,42260,12.13,73234.8,-8.71,-12.11,-11.97,0,*51
1487419300.04,42261,12.19,73236.8,-8.71,-12.47,-12.47,0,*5D
1487419301.26,42262,12.19,73238.3,-8.71,-12.25,-12.29,0,*52
1487419302.49,42263,12.13,73236.5,-8.69,-12.03,-12.03,0,*56
1487419303.76,42264,12.19,73236.5,-8.67,-11.93,-11.97,0,*5B
1487419305.05,42265,12.19,73238.0,-8.69,-12.35,-12.35,0,*50
1487419306.32,42266,12.19,73238.5,-8.69,-12.75,-12.89,0,*50
1487419307.56,42267,12.19,73236.0,-8.69,-12.89,-12.89,0,*52
1487419308.8,42268,12.19,73236.0,-8.69,-12.47,-12.43,0,*59
1487419310.04,42269,12.13,73234.8,-8.69,-12.89,-12.89,0,*5C
1487419311.3,42270,12.19,73232.5,-8.69,-12.89,-12.75,0,*57
1487419312.52,42271,12.13,73232.5,-8.67,-12.93,-12.93,0,*5B
1487419313.8,42272,12.19,73238.5,-8.69,-12.71,-12.57,0,*52
1487419315.06,42273,12.19,73234.3,-8.67,-12.65,-12.65,0,*59
1487419316.36,42274,12.13,73230.5,-8.69,-12.75,-12.71,0,*54
1487419317.64,42275,12.19,73236.3,-8.69,-12.57,-12.61,0,*54
1487419318.86,42276,12.13,73236.0,-8.71,-12.29,-12.47,0,*53
1487419320.1,42277,12.13,73234.5,-8.71,-12.35,-12.43,0,*5B
1487419321.36,42278,12.13,73232.3,-8.69,-12.47,-12.57,0,*5D
1487419322.62,42279,12.19,73232.3,-8.69,-13.19,-13.29,0,*5E
1487419323.88,42280,12.19,73234.8,-8.69,-12.89,-13.01,0,*5A
1487419325.12,42281,12.13,73232.8,-8.71,-12.83,-12.89,0,*59
1487419326.32,42282,12.19,73232.5,-8.71,-12.93,-13.07,0,*5C
1487419327.57,42283,12.13,73230.8,-8.71,-12.75,-12.89,0,*52
1487419328.83,42284,12.13,73228.5,-8.71,-12.75,-12.75,0,*56
1487419330.04,42285,12.19,73230.8,-8.71,-12.89,-12.97,0,*58
1487419331.25,42286,12.13,73230.3,-8.71,-12.89,-13.11,0,*54
1487419332.46,42287,12.19,73228.3,-8.71,-12.97,-13.15,0,*5E
1487419333.73,42288,12.13,73228.5,-8.73,-13.01,-13.23,0,*58
1487419334.99,42289,12.13,73232.8,-8.73,-13.07,-13.33,0,*5E
1487419336.25,42290,12.19,73238.8,-8.71,-13.29,-13.61,0,*5F
1487419337.49,42291,12.13,73236.3,-8.71,-12.97,-13.29,0,*56
1487419338.72,42292,12.13,73238.3,-8.71,-13.15,-13.33,0,*55
1487419339.94,42293,12.13,73236.0,-8.71,-13.19,-13.19,0,*50
1487419341.18,42294,12.13,73234.5,-8.71,-13.43,-13.33,0,*50
1487419342.44,42295,12.19,73238.8,-8.71,-13.97,-13.83,0,*53
1487419343.65,42296,12.19,73238.8,-8.71,-13.73,-13.47,0,*52
1487419344.87,42297,12.19,73238.8,-8.71,-13.47,-13.01,0,*56
1487419346.14,42298,12.13,73238.0,-8.71,-13.97,-13.33,0,*55
1487419347.39,42299,12.13,73236.3,-8.71,-13.83,-13.11,0,*51
1487419348.62,42300,12.13,73236.3,-8.71,-13.47,-12.83,0,*52
1487419349.83,42301,12.13,73232.8,-8.71,-13.73,-13.15,0,*5A
1487419351.09,42302,12.19,73238.5,-8.71,-13.01,-12.57,0,*5B
1487419352.32,42303,12.13,73232.3,-8.71,-12.89,-12.61,0,*5E
1487419353.56,42304,12.19,73238.8,-8.71,-12.71,-12.47,0,*5A
1487419354.77,42305,12.19,73238.5,-8.71,-12.97,-12.97,0,*5E
1487419356.06,42306,12.13,73232.8,-8.73,-12.75,-12.65,0,*5E
1487419357.3,42307,12.13,73232.8,-8.71,-12.35,-12.43,0,*5D
1487419358.53,42308,12.13,73232.5,-8.71,-12.83,-12.97,0,*56
1487419359.77,42309,12.13,73232.8,-8.71,-12.83,-12.97,0,*57
1487419361.01,42310,12.19,73232.8,-8.71,-12.75,-12.97,0,*56
1487419362.24,42311,12.13,73228.8,-8.73,-12.93,-13.07,0,*55
1487419363.51,42312,12.13,73228.8,-8.73,-12.75,-12.93,0,*52
1487419364.75,42313,12.13,73234.0,-8.71,-12.83,-12.97,0,*5C
1487419366.01,42314,12.13,73230.0,-8.73,-13.33,-13.19,0,*54
1487419367.28,42315,12.13,73230.3,-8.73,-13.01,-12.93,0,*57
1487419368.52,42316,12.13,73232.0,-8.71,-12.97,-12.75,0,*50
1487419369.79,42317,12.13,73234.8,-8.73,-12.93,-12.75,0,*57
1487419371.08,42318,12.13,73230.3,-8.73,-12.75,-12.53,0,*54
1487419372.37,42319,12.13,73232.3,-8.73,-12.35,-12.07,0,*50
1487419373.58,42320,12.13,73232.5,-8.71,-12.47,-12.43,0,*5D
1487419374.82,42321,12.19,73238.0,-8.71,-13.01,-12.97,0,*56
1487419376.08,42322,12.13,73234.0,-8.73,-12.65,-12.47,0,*59
1487419377.3,42323,12.13,73234.3,-8.71,-12.97,-12.89,0,*55
1487419378.54,42324,12.19,73236.3,-8.75,-12.53,-12.39,0,*55
1487419379.75,42325,12.13,73234.5,-8.71,-12.47,-12.39,0,*55
1487419381.04,42326,12.19,73236.3,-8.73,-12.75,-12.61,0,*58
1487419382.33,42327,12.13,73234.5,-8.73,-12.61,-12.53,0,*5D
1487419383.61,42328,12.13,73234.0,-8.73,-12.61,-12.61,0,*53
1487419384.87,42329,12.13,73234.3,-8.71,-12.83,-12.83,0,*50
1487419386.11,42330,12.13,73232.0,-8.73,-12.89,-12.89,0,*5A
1487419387.35,42331,12.13,73234.5,-8.73,-12.47,-12.47,0,*5B
1487419388.64,42332,12.19,73238.3,-8.73,-12.53,-12.53,0,*58
1487419389.93,42333,12.13,73232.8,-8.73,-12.75,-12.75,0,*59
1487419391.22,42334,12.13,73230.0,-8.73,-12.75,-12.65,0,*5F
1487419392.49,42335,12.13,73230.3,-8.75,-12.35,-12.35,0,*59
1487419393.75,42336,12.13,73228.5,-8.75,-12.07,-12.07,0,*5A
1487419395.04,42337,12.13,73228.8,-8.73,-12.07,-12.07,0,*5D
1487419396.3,42338,12.13,73230.0,-8.71,-12.15,-12.11,0,*54
1487419397.51,42339,12.13,73228.3,-8.71,-12.43,-12.47,0,*55
1487419398.8,42340,12.13,73230.0,-8.73,-12.53,-12.61,0,*5C
1487419400.04,42341,12.13,73228.8,-8.75,-12.47,-12.53,0,*5F
1487419401.33,42342,12.13,73228.3,-8.73,-12.07,-12.07,0,*5F
1487419402.6,42343,12.13,73234.0,-8.75,-12.07,-12.07,0,*58
1487419403.89,42344,12.13,73228.3,-8.73,-12.07,-12.07,0,*59
1487419405.15,42345,12.19,73234.5,-8.71,-12.57,-12.61,0,*5F
1487419406.43,42346,12.19,73232.0,-8.73,-12.75,-12.65,0,*5A
1487419407.68,42347,12.13,73224.0,-8.73,-12.29,-12.47,0,*52
1487419408.96,42348,12.19,73230.5,-8.73,-12.15,-12.15,0,*55
1487419410.25,42349,12.13,73226.0,-8.73,-12.15,-12.15,0,*54
1487419411.53,42350,12.13,73230.8,-8.73,-12.65,-12.65,0,*5C
1487419412.77,42351,12.19,73232.0,-8.71,-12.03,-12.07,0,*5B
1487419414.06,42352,12.19,73230.5,-8.73,-11.93,-11.89,0,*55
1487419415.36,42353,12.13,73226.5,-8.73,-11.93,-11.89,0,*54
1487419416.65,42354,12.13,73230.0,-8.73,-11.89,-11.89,0,*58
1487419417.91,42355,12.13,73234.0,-8.71,-11.97,-11.97,0,*5B
1487419419.12,42356,12.19,73236.3,-8.71,-12.03,-12.03,0,*58
1487419420.34,42357,12.19,73238.0,-8.71,-12.25,-12.43,0,*59
1487419421.55,42358,12.13,73236.0,-8.71,-12.89,-12.97,0,*59
1487419422.84,42359,12.13,73232.3,-8.73,-12.79,-12.79,0,*55
1487419424.07,42360,12.13,73232.3,-8.71,-12.61,-12.47,0,*59
1487419425.34,42361,12.13,73228.8,-8.73,-12.53,-12.47,0,*5B
1487419426.58,42362,12.19,73234.3,-8.73,-12.47,-12.21,0,*5D
1487419427.82,42363,12.19,73234.8,-8.71,-12.43,-12.35,0,*5F
1487419429.08,42364,12.13,73232.8,-8.73,-12.15,-12.03,0,*5C
1487419430.37,42365,12.13,73236.8,-8.73,-11.89,-11.77,0,*5B
1487419431.66,42366,12.13,73234.5,-8.73,-11.93,-11.81,0,*5A
1487419432.9,42367,12.13,73232.8,-8.71,-12.15,-12.29,0,*55
1487419434.18,42368,12.13,73232.0,-8.73,-12.65,-12.65,0,*57
1487419435.39,42369,12.13,73228.8,-8.71,-12.43,-12.47,0,*50
1487419436.61,42370,12.19,73232.5,-8.71,-12.29,-12.43,0,*50
1487419437.85,42371,12.13,73230.8,-8.73,-12.29,-12.21,0,*57
1487419439.13,42372,12.19,73230.0,-8.73,-12.61,-12.65,0,*58
1487419440.4,42373,12.13,73224.8,-8.71,-12.35,-12.35,0,*5F
1487419441.61,42374,12.13,73228.5,-8.71,-12.47,-12.47,0,*58
1487419442.87,42375,12.13,73228.8,-8.71,-12.61,-12.61,0,*59
1487419444.15,42376,12.13,73228.3,-8.73,-12.61,-12.65,0,*5C
1487419445.39,42377,12.19,73230.0,-8.73,-12.47,-12.39,0,*50
1487419446.63,42378,12.19,73230.5,-8.71,-12.29,-12.35,0,*59
1487419447.9,42379,12.13,73224.3,-8.73,-12.07,-12.03,0,*53
1487419449.13,42380,12.13,73226.0,-8.73,-12.39,-12.47,0,*58
1487419450.37,42381,12.13,73222.8,-8.73,-12.29,-12.39,0,*51
1487419451.62,42382,12.19,73226.0,-8.73,-12.21,-12.21,0,*53
1487419452.91,42383,12.13,73226.5,-8.73,-12.07,-12.07,0,*52
1487419454.18,42384,12.13,73226.0,-8.73,-12.21,-12.15,0,*52
1487419455.47,42385,12.19,73228.3,-8.73,-12.07,-12.07,0,*54
1487419456.73,42386,12.13,73224.3,-8.71,-11.77,-11.85,0,*58
1487419458.02,42387,12.19,73228.8,-8.73,-11.89,-11.81,0,*5E
1487419459.31,42388,12.19,73226.8,-8.73,-12.15,-12.07,0,*5A
1487419460.52,42389,12.13,73224.3,-8.71,-12.39,-12.47,0,*53
1487419461.78,42390,12.19,73224.5,-8.73,-12.07,-12.21,0,*54
1487419463.08,42391,12.13,73228.5,-8.73,-11.93,-11.93,0,*51
1487419464.34,42392,12.19,73230.0,-8.71,-11.77,-11.77,0,*50
1487419465.6,42393,12.13,73228.0,-8.71,-11.85,-11.89,0,*5D
1487419466.86,42394,12.13,73224.5,-8.71,-12.61,-12.61,0,*56
1487419468.12,42395,12.13,73226.3,-8.71,-12.35,-12.57,0,*53
1487419469.41,42396,12.13,73226.5,-8.73,-12.07,-12.15,0,*55
1487419470.67,42397,12.13,73226.0,-8.73,-12.03,-12.07,0,*53
1487419471.93,42398,12.19,73228.3,-8.73,-12.03,-12.07,0,*5C
1487419473.19,42399,12.19,73230.0,-8.71,-11.97,-11.97,0,*5B
1487419474.45,42400,12.13,73230.5,-8.71,-11.97,-11.97,0,*5C
1487419475.72,42401,12.13,73232.3,-8.73,-11.93,-12.03,0,*55
1487419476.96,42402,12.19,73232.8,-8.71,-12.03,-11.97,0,*50
1487419478.23,42403,12.13,73232.8,-8.73,-12.07,-12.21,0,*59
1487419479.49,42404,12.19,73232.3,-8.71,-12.35,-12.57,0,*5C
1487419480.72,42405,12.19,73234.8,-8.71,-12.47,-12.61,0,*5D
1487419481.93,42406,12.19,73232.3,-8.71,-12.43,-12.43,0,*5A
1487419483.14,42407,12.13,73230.0,-8.71,-12.03,-12.03,0,*5B
1487419484.41,42408,12.13,73226.5,-8.71,-12.11,-12.11,0,*54
1487419485.68,42409,12.19,73224.0,-8.73,-12.21,-12.35,0,*52
1487419486.94,42410,12.19,73226.8,-8.71,-12.15,-12.11,0,*59
1487419488.2,42411,12.13,73222.5,-8.71,-12.15,-12.15,0,*5C
1487419489.45,42412,12.19,73226.3,-8.71,-12.25,-12.35,0,*5E
1487419490.69,42413,12.13,73226.0,-8.71,-12.35,-12.47,0,*5B
1487419491.95,42414,12.13,73226.0,-8.73,-12.07,-12.21,0,*5F
1487419493.21,42415,12.19,73232.5,-8.71,-12.11,-12.15,0,*5C
1487419494.45,42416,12.19,73228.3,-8.71,-12.43,-12.57,0,*5E
1487419495.66,42417,12.13,73224.3,-8.71,-12.29,-12.43,0,*56
1487419496.96,42418,12.13,73230.0,-8.69,-12.15,-12.35,0,*5E
1487419498.22,42419,12.19,73228.8,-8.71,-12.15,-12.61,0,*57
1487419499.43,42420,12.13,73228.8,-8.71,-12.43,-13.19,0,*50
1487419500.66,42421,12.13,73232.5,-8.71,-12.71,-13.73,0,*5C
1487419501.9,42422,12.13,73234.3,-8.73,-12.93,-14.19,0,*5A
1487419503.2,42423,12.13,73232.5,-8.73,-13.37,-14.47,0,*5F
1487419504.46,42424,12.13,73234.8,-8.73,-13.73,-14.47,0,*58
1487419505.74,42425,12.13,73234.8,-8.73,-14.47,-14.89,0,*5B
1487419507.03,42426,12.19,73232.8,-8.73,-14.51,-14.79,0,*50
1487419508.3,42427,12.19,73232.3,-8.73,-14.11,-14.75,0,*59
1487419509.57,42428,12.13,73228.8,-8.75,-14.51,-15.21,0,*54
1487419510.83,42429,12.13,73228.0,-8.77,-14.65,-15.43,0,*54
1487419512.08,42430,12.13,73226.5,-8.77,-14.37,-15.11,0,*5C
1487419513.35,42431,12.19,73232.5,-8.77,-14.29,-15.39,0,*58
1487419514.61,42432,12.19,73232.0,-8.81,-14.75,-15.75,0,*53
1487419515.85,42433,12.13,73228.5,-8.83,-14.75,-15.75,0,*50
1487419517.09,42434,12.13,73230.3,-8.83,-14.89,-15.85,0,*5B
1487419518.35,42435,12.13,73228.0,-8.83,-14.43,-15.01,0,*50
1487419519.61,42436,12.13,73224.3,-8.85,-13.87,-14.43,0,*5D
1487419520.84,42437,12.13,73230.8,-8.85,-13.47,-13.97,0,*5E
1487419522.1,42438,12.13,73228.0,-8.85,-13.61,-13.87,0,*54
1487419523.34,42439,12.13,73226.0,-8.87,-13.19,-13.51,0,*53
1487419524.58,42440,12.13,73234.0,-8.85,-12.75,-12.97,0,*5F
1487419525.85,42441,12.13,73234.5,-8.85,-12.75,-12.83,0,*5B
1487419527.05,42442,12.19,73232.3,-8.85,-13.11,-13.15,0,*55
1487419528.26,42443,12.19,73234.5,-8.83,-13.23,-13.15,0,*53
1487419529.47,42444,12.19,73234.3,-8.83,-13.11,-12.89,0,*51
1487419530.72,42445,12.13,73230.5,-8.83,-13.11,-12.71,0,*57
1487419531.93,42446,12.13,73230.5,-8.83,-12.97,-12.43,0,*5A
1487419533.19,42447,12.13,73230.8,-8.83,-12.57,-12.15,0,*54
1487419534.45,42448,12.19,73230.8,-8.81,-12.47,-12.11,0,*5C
1487419535.71,42449,12.19,73228.8,-8.81,-12.43,-12.15,0,*5D
1487419536.97,42450,12.19,73230.0,-8.81,-12.25,-11.97,0,*5C
1487419538.27,42451,12.13,73228.3,-8.77,-11.93,-11.73,0,*50
1487419539.53,42452,12.19,73232.5,-8.77,-11.59,-11.45,0,*50
1487419540.83,42453,12.13,73230.5,-8.77,-11.93,-11.85,0,*5B
1487419542.12,42454,12.13,73228.5,-8.77,-11.93,-11.81,0,*58
1487419543.41,42455,12.13,73230.0,-8.77,-11.85,-11.81,0,*5E
1487419544.65,42456,12.13,73234.0,-8.75,-11.89,-12.03,0,*5A
1487419545.89,42457,12.19,73234.5,-8.75,-11.93,-12.03,0,*50
1487419547.19,42458,12.13,73232.0,-8.77,-11.67,-11.73,0,*52
1487419548.44,42459,12.13,73232.8,-8.75,-11.77,-11.77,0,*54
1487419549.7,42460,12.13,73232.5,-8.75,-11.81,-11.89,0,*56
1487419550.95,42461,12.13,73234.5,-8.75,-11.93,-12.03,0,*55
1487419552.16,42462,12.19,73236.3,-8.75,-12.03,-12.03,0,*5C
1487419553.41,42463,12.19,73234.3,-8.75,-11.81,-11.81,0,*5D
1487419554.67,42464,12.13,73232.8,-8.75,-11.67,-11.77,0,*5B
1487419555.91,42465,12.13,73236.5,-8.75,-11.89,-12.03,0,*5A
1487419557.15,42466,12.13,73234.5,-8.75,-11.93,-12.03,0,*52
1487419558.42,42467,12.13,73238.3,-8.73,-12.07,-12.39,0,*52
1487419559.67,42468,12.19,73236.3,-8.73,-12.39,-12.65,0,*59
1487419560.93,42469,12.13,73234.8,-8.73,-12.03,-12.07,0,*55
1487419562.19,42470,12.13,73236.5,-8.73,-12.03,-12.15,0,*5E
1487419563.43,42471,12.19,73236.8,-8.71,-12.15,-12.47,0,*5D
1487419564.72,42472,12.13,73236.0,-8.73,-12.35,-12.65,0,*5E
1487419566.01,42473,12.13,73236.5,-8.73,-12.15,-12.53,0,*58
1487419567.22,42474,12.13,73236.3,-8.71,-12.43,-12.97,0,*56
1487419568.45,42475,12.19,73238.3,-8.73,-12.39,-12.93,0,*5C
1487419569.72,42476,12.13,73238.5,-8.73,-12.35,-13.15,0,*5C
1487419570.94,42477,12.19,73242.5,-8.71,-12.61,-13.73,0,*5E
1487419572.24,42478,12.13,73238.0,-8.73,-12.79,-14.47,0,*5A
1487419573.5,42479,12.19,73242.3,-8.73,-13.19,-15.35,0,*58
1487419574.79,42480,12.13,73238.5,-8.73,-13.87,-16.27,0,*59
1487419576.02,42481,12.13,73236.3,-8.73,-15.49,-17.31,0,*5A
1487419577.23,42482,12.13,73234.8,-8.75,-15.63,-16.79,0,*5A
1487419578.5,42483,12.13,73236.5,-8.77,-15.39,-16.41,0,*5D
1487419579.79,42484,12.19,73238.5,-8.77,-14.97,-16.27,0,*5F
1487419581.05,42485,12.13,73236.3,-8.77,-14.97,-16.55,0,*5B
1487419582.32,42486,12.13,73238.3,-8.81,-15.01,-16.65,0,*5C
1487419583.59,42487,12.19,73238.0,-8.83,-15.85,-17.03,0,*52
1487419584.87,42488,12.13,73232.8,-8.81,-15.85,-17.03,0,*5F
1487419586.14,42489,12.13,73238.0,-8.83,-16.51,-17.03,0,*56
1487419587.37,42490,12.19,73236.0,-8.83,-15.89,-15.63,0,*5C
1487419588.64,42491,12.13,73236.8,-8.85,-15.35,-14.97,0,*56
1487419589.87,42492,12.13,73238.5,-8.87,-14.65,-14.65,0,*5E
1487419591.1,42493,12.13,73238.5,-8.85,-14.69,-14.55,0,*52
1487419592.34,42494,12.19,73240.5,-8.85,-14.33,-13.97,0,*53
1487419593.6,42495,12.13,73238.0,-8.87,-13.87,-13.47,0,*55
1487419594.85,42496,12.13,73238.3,-8.87,-13.47,-13.29,0,*52
1487419596.07,42497,12.19,73238.8,-8.85,-13.11,-12.89,0,*59
1487419597.3,42498,12.13,73236.0,-8.85,-12.89,-12.83,0,*5C
1487419598.56,42499,12.13,73238.0,-8.85,-12.61,-12.57,0,*52
1487419599.82,42500,12.13,73238.5,-8.85,-12.57,-12.61,0,*53
1487419601.03,42501,12.13,73242.0,-8.85,-12.47,-12.47,0,*57
1487419602.29,42502,12.13,73242.3,-8.85,-13.01,-13.01,0,*54
1487419603.52,42503,12.13,73240.8,-8.85,-13.47,-13.33,0,*56
1487419604.79,42504,12.19,73242.3,-8.87,-14.37,-14.01,0,*55
1487419606.06,42505,12.19,73240.5,-8.87,-14.47,-14.15,0,*56
1487419607.33,42506,12.13,73240.0,-8.87,-14.19,-13.87,0,*52
1487419608.59,42507,12.13,73240.8,-8.87,-13.37,-13.15,0,*53
1487419609.83,42508,12.13,73242.3,-8.87,-13.07,-12.93,0,*50
1487419611.05,42509,12.13,73240.0,-8.89,-13.19,-13.19,0,*53
1487419612.3,42510,12.13,73242.3,-8.89,-13.33,-13.29,0,*50
1487419613.51,42511,12.13,73238.5,-8.89,-13.15,-13.15,0,*5A
1487419614.74,42512,12.19,73246.5,-8.91,-13.11,-13.11,0,*50
1487419615.98,42513,12.13,73242.0,-8.91,-13.19,-13.19,0,*51
1487419617.23,42514,12.13,73238.5,-8.91,-13.23,-13.37,0,*53
1487419618.47,42515,12.13,73236.5,-8.91,-13.11,-13.19,0,*5F
1487419619.73,42516,12.13,73236.0,-8.91,-13.23,-13.33,0,*55
1487419620.97,42517,12.13,73234.8,-8.91,-13.19,-13.19,0,*55
1487419622.21,42518,12.13,73232.8,-8.91,-13.23,-13.23,0,*5A
1487419623.49,42519,12.13,73234.5,-8.91,-13.37,-13.33,0,*5F
1487419624.7,42520,12.19,73234.3,-8.93,-13.11,-12.89,0,*53
1487419625.91,42521,12.13,73232.8,-8.93,-13.15,-13.11,0,*56
1487419627.14,42522,12.13,73228.5,-8.93,-13.43,-13.37,0,*52
1487419628.4,42523,12.13,73228.5,-8.95,-13.01,-12.97,0,*58
1487419629.64,42524,12.13,73230.8,-8.93,-12.57,-12.43,0,*52
1487419630.88,42525,12.13,73232.5,-8.95,-12.29,-12.25,0,*5C
1487419632.11,42526,12.13,73232.5,-8.95,-12.43,-12.39,0,*5E
1487419633.35,42527,12.13,73232.0,-8.93,-12.29,-12.15,0,*5B
1487419634.59,42528,12.13,73232.3,-8.93,-12.11,-12.03,0,*58
1487419635.81,42529,12.13,73230.8,-8.93,-12.25,-12.25,0,*5A
1487419637.02,42530,12.13,73232.3,-8.93,-12.29,-12.29,0,*52
1487419638.24,42531,12.19,73236.3,-8.93,-12.29,-12.29,0,*53
1487419639.5,42532,12.13,73238.3,-8.93,-12.11,-12.15,0,*54
1487419640.76,42533,12.13,73236.5,-8.91,-12.11,-12.21,0,*50
1487419641.98,42534,12.13,73236.3,-8.93,-12.29,-12.29,0,*56
1487419643.2,42535,12.19,73242.5,-8.93,-12.25,-12.29,0,*5B
1487419644.43,42536,12.13,73232.5,-8.93,-12.83,-12.97,0,*51
1487419645.67,42537,12.13,73234.3,-8.93,-12.89,-13.01,0,*54
1487419646.9,42538,12.13,73234.5,-8.93,-12.83,-12.89,0,*50
1487419648.16,42539,12.13,73230.8,-8.93,-12.57,-12.61,0,*5E
1487419649.42,42540,12.19,73236.3,-8.93,-12.71,-12.61,0,*54
1487419650.64,42541,12.13,73232.0,-8.93,-12.29,-12.25,0,*58
1487419651.85,42542,12.13,73232.8,-8.93,-12.29,-12.25,0,*5B
1487419653.09,42543,12.13,73232.0,-8.91,-12.25,-12.21,0,*50
1487419654.33,42544,12.13,73230.3,-8.91,-12.25,-12.21,0,*57
1487419655.59,42545,12.19,73234.3,-8.91,-12.35,-12.21,0,*57
1487419656.85,42546,12.13,73228.5,-8.91,-12.25,-12.11,0,*56
1487419658.13,42547,12.13,73228.8,-8.91,-12.11,-12.07,0,*57
1487419659.42,42548,12.13,73228.3,-8.91,-12.07,-12.07,0,*5F
1487419660.64,42549,12.13,73230.8,-8.89,-12.29,-12.21,0,*5F
1487419661.85,42550,12.13,73228.8,-8.89,-12.29,-12.21,0,*57
1487419663.09,42551,12.13,73226.0,-8.91,-12.47,-12.25,0,*53
1487419664.35,42552,12.19,73228.5,-8.91,-12.21,-12.11,0,*57
1487419665.59,42553,12.13,73226.5,-8.91,-12.25,-12.21,0,*51
1487419666.83,42554,12.13,73230.3,-8.89,-12.15,-12.03,0,*5C
1487419668.07,42555,12.13,73226.8,-8.91,-12.21,-12.21,0,*53
1487419669.28,42556,12.13,73226.3,-8.89,-12.29,-12.29,0,*59
1487419670.57,42557,12.13,73226.8,-8.91,-12.71,-12.79,0,*59
1487419671.81,42558,12.13,73228.0,-8.91,-12.25,-12.21,0,*5A
1487419673.06,42559,12.13,73230.8,-8.91,-12.35,-12.25,0,*5E
1487419674.3,42560,12.13,73228.8,-8.91,-12.25,-12.25,0,*55
1487419675.54,42561,12.13,73228.3,-8.91,-12.25,-12.21,0,*50
1487419676.77,42562,12.13,73228.5,-8.91,-12.25,-12.25,0,*57
1487419678.04,42563,12.13,73230.8,-8.93,-12.15,-12.11,0,*50
1487419679.32,42564,12.13,73228.5,-8.91,-12.11,-12.11,0,*51
1487419680.6,42565,12.13,73232.5,-8.91,-12.07,-12.07,0,*50
1487419681.87,42566,12.13,73232.8,-8.91,-12.21,-12.11,0,*50
1487419683.1,42567,12.13,73232.8,-8.89,-12.03,-12.07,0,*5F
1487419684.34,42568,12.19,73232.3,-8.89,-12.11,-12.21,0,*57
1487419685.62,42569,12.19,73234.5,-8.91,-11.97,-11.97,0,*5C
1487419686.9,42570,12.13,73230.8,-8.91,-11.85,-11.85,0,*54
1487419688.17,42571,12.13,73232.0,-8.91,-12.21,-12.11,0,*56
1487419689.41,42572,12.13,73234.0,-8.91,-12.21,-12.25,0,*52
1487419690.65,42573,12.13,73232.0,-8.91,-12.21,-12.21,0,*57
1487419691.93,42574,12.13,73232.0,-8.91,-11.97,-12.11,0,*5D
1487419693.21,42575,12.13,73232.0,-8.91,-12.07,-12.11,0,*56
1487419694.48,42576,12.19,73234.0,-8.89,-12.07,-12.07,0,*5B
1487419695.72,42577,12.13,73230.5,-8.91,-12.21,-12.21,0,*53
1487419696.98,42578,12.13,73232.0,-8.91,-12.25,-12.35,0,*5D
1487419698.23,42579,12.13,73232.8,-8.91,-12.39,-12.65,0,*54
1487419699.49,42580,12.13,73234.3,-8.91,-12.53,-12.93,0,*57